User: anonymous   Login
Location: Holiday Acres Laynes 2 Mobile Home Park
(26.7249°N, 81.8671°W)
Time: 08:02:16
(UTC+00:00)
Language:

STARLINK-1159 - Orbit

View from above orbital plane
View from above orbital plane
View from above satellite
View from above satellite

Ground track
Ground track

The orbit data is extracted from the following two-line orbital elements,

1 45057C 20006P   21172.13247322 -.00020615  00000-0 -13815-2 0  1725
2 45057  53.0543  99.4878 0001738  64.8589  23.3761 15.06413125    18
Epoch (UTC): 21 June 2021 03:10:45
Eccentricity: 0.0001738
inclination: 53.0543°
perigee height: 546 km
apogee height: 548 km
right ascension of ascending node: 99.4878°
argument of perigee: 64.8589°
revolutions per day: 15.06413125
mean anomaly at epoch: 23.3761°
orbit number at epoch: 1

The dashed part of the orbit path shows where the satellite is in the earth's shadow,  

DLR